Dewpoint
55 51 48 43 34 30 26 29 23 20 23 34 36 29 30 40 32 24 51 53 54 56 54 57 59 58 58 59 61 59 59 60 60 59 58 59 59 59 59 57 58 60 62 60 64 66 67 67 66
51 46 44 36 27 22 22 25 22 22 33 31 28 30 35 39 48 50 52 54 55 56 54 58 58 60 58 61 60 59 59 59 58 57 58 58 57 57 59 57 57 60 60 63 64 66 67 66 66
46 43 39 30 25 22 22 23 21 26 30 22 30 34 38 42 49 50 52 55 56 52 53 58 58 60 60 60 60 59 58 58 57 56 56 55 55 56 56 56 57 59 60 63 63 65 66 66 65
42 37 33 26 21 22 22 21 21 29 23 26 31 31 37 43 50 51 54 55 51 49 52 57 59 60 60 58 60 58 57 56 56 54 54 55 55 55 56 56 57 59 62 63 63 64 65 65 64
38 32 24 23 22 20 21 20 23 18 18 22 22 32 39 46 49 54 54 51 49 50 55 57 59 60 59 60 59 57 55 54 53 54 54 54 54 55 55 56 56 59 63 63 64 64 64 64 64
34 29 17 15 18 23 21 20 17 15 18 23 33 38 42 48 53 53 52 50 50 51 56 57 60 60 60 59 56 54 53 53 53 54 53 54 54 54 54 55 55 58 62 63 63 63 63 63 64
31 25 19 17 21 24 21 19 17 16 19 19 32 31 38 50 53 51 51 51 51 52 55 56 58 57 57 56 53 51 51 51 52 52 54 54 54 54 53 55 56 58 59 61 61 62 62 62 62
32 28 22 23 18 22 20 19 19 17 15 26 27 28 38 48 52 51 51 51 50 52 53 52 50 50 49 49 50 49 49 48 49 49 48 49 50 54 55 55 55 55 57 57 60 61 61 60 60
36 28 24 22 20 20 19 18 18 21 22 24 30 32 37 51 51 50 50 49 50 50 51 50 48 46 46 46 46 48 48 48 45 44 45 44 48 50 52 54 54 54 54 54 55 56 55 55 56
30 26 22 23 25 23 21 21 16 18 21 24 32 47 50 51 50 49 49 48 48 49 49 49 47 45 43 39 39 38 37 36 37 37 38 41 44 48 45 49 52 52 50 52 54 53 51 49 48
28 18 19 27 26 25 22 20 17 18 20 21 27 44 49 50 49 49 49 48 48 48 49 48 46 44 42 38 37 37 37 36 35 34 36 39 40 41 39 39 39 39 39 39 43 44 45 46 47
25 27 28 30 26 22 21 20 19 18 22 22 28 47 48 50 49 49 48 48 48 48 48 48 46 42 40 38 36 36 36 36 34 34 35 38 39 37 35 35 35 35 37 41 43 43 44 43 43
26 26 26 25 19 20 21 21 19 19 23 36 45 48 48 49 49 49 49 49 48 48 48 48 44 40 39 37 36 37 37 36 35 35 35 38 38 36 35 34 34 35 37 39 41 41 41 39 39
24 25 22 22 22 23 20 22 27 23 34 42 46 47 47 47 48 48 48 48 48 48 48 47 43 40 38 37 36 36 36 36 35 35 35 37 38 36 36 34 34 35 36 38 39 38 36 35 35
23 23 26 22 22 26 26 24 23 25 35 40 43 45 46 47 48 48 48 48 48 48 48 47 43 40 37 36 36 36 36 35 35 35 35 36 38 37 36 35 35 35 36 37 36 34 33 32 31
24 25 20 24 25 27 25 15 20 26 32 37 41 44 45 46 48 48 48 48 48 48 47 46 41 39 37 36 36 36 35 35 35 35 35 36 37 37 36 36 35 35 36 36 33 32 32 32 31
21 14 21 23 26 27 24 20 21 25 27 31 38 42 44 44 46 47 48 48 48 47 47 45 41 38 37 37 37 35 35 35 35 35 35 36 36 37 37 37 36 35 35 33 32 32 32 31 32
14 19 19 20 25 27 25 23 22 23 25 25 30 36 41 43 44 45 47 47 47 46 46 45 41 38 37 38 36 35 35 35 35 35 35 36 37 36 37 37 36 34 33 33 32 31 31 31 30
15 19 18 18 25 26 25 24 24 23 23 23 22 28 33 39 42 45 46 46 45 44 44 43 40 38 37 36 35 34 33 35 35 35 35 35 35 36 36 37 35 34 32 32 31 31 30 31 31
21 19 18 20 24 23 21 20 21 22 22 23 23 24 26 28 36 43 45 44 43 43 43 41 40 37 38 37 37 37 35 35 35 36 35 35 34 36 35 36 36 34 32 32 31 31 31 32 33
20 19 18 18 22 22 20 16 14 20 21 22 24 25 25 27 30 40 43 44 43 41 41 41 39 38 38 38 38 37 36 36 35 35 35 35 34 35 35 35 35 34 33 32 32 32 32 32 31
18 19 19 20 21 20 20 19 11 17 19 20 23 24 25 26 27 36 42 43 42 41 41 40 39 38 38 39 38 36 35 33 34 35 35 35 34 34 35 35 34 34 34 33 33 32 32 32 31
20 24 22 20 20 19 19 20 14 18 19 19 23 25 27 27 31 36 40 42 42 39 38 39 39 38 39 39 38 37 35 35 35 34 34 34 33 34 33 34 34 33 34 33 33 33 32 31 30
27 22 23 22 19 14 15 19 10 10 18 21 23 26 27 28 35 37 39 41 40 39 37 37 38 38 38 39 38 37 37 36 35 34 34 34 33 33 32 32 33 33 32 32 32 32 32 30 29
23 21 19 14 16 15 18 17 17 19 22 23 23 26 28 27 31 35 37 39 39 38 37 36 37 38 38 38 38 37 37 36 36 34 33 33 33 33 33 32 32 31 31 31 30 30 29 29 29
21 22 19 7 8 8 21 18 20 22 24 25 25 27 29 30 30 29 34 36 38 38 37 36 36 36 38 38 38 38 37 36 36 35 34 33 33 33 33 32 31 30 30 30 28 28 28 28 28
24 21 18 14 13 13 12 14 18 22 24 23 24 26 27 28 29 30 33 32 34 36 36 36 36 36 37 37 38 38 37 37 37 36 35 34 33 32 32 32 31 30 30 29 29 28 27 27 28
26 24 19 18 5 8 5 11 10 19 22 23 23 25 28 30 30 30 31 33 35 35 34 35 35 36 36 37 37 37 38 37 37 37 35 35 34 33 32 31 30 30 30 29 29 28 28 27 28
24 20 23 21 15 9 3 10 22 21 23 24 24 28 30 30 31 29 30 32 33 34 35 36 35 35 35 36 37 38 38 38 38 37 36 36 35 33 32 31 30 30 29 29 28 28 28 27 27
26 25 24 17 9 11 12 15 24 24 24 25 27 30 30 29 30 29 30 30 31 32 32 33 35 36 36 36 36 37 38 38 38 38 38 37 35 34 32 31 30 30 29 28 28 28 27 27 27
Lifted_Index
6 6 6 6 5 3 3 3 3 4 5 5 6 6 6 6 6 5 6 6 6 6 6 5 5 5 5 4 4 5 5 5 5 5 6 6 6 6 6 6 6 5 4 3 1 0 -0 -0 0
7 7 6 5 4 3 3 3 4 4 5 6 6 7 7 7 6 6 6 6 6 6 6 5 5 5 5 4 4 5 5 5 6 6 6 6 6 6 6 6 6 5 4 2 1 0 -0 -0 0
7 7 6 5 3 3 3 4 4 4 5 6 6 7 7 7 7 6 6 6 6 6 6 5 5 5 4 5 5 5 6 6 7 7 7 7 7 7 7 7 6 5 3 2 1 0 0 0 0
7 7 6 4 3 3 4 4 4 4 5 6 6 6 7 7 7 6 6 6 6 7 6 5 5 4 5 5 5 6 7 7 7 8 8 8 8 7 7 7 6 5 3 2 1 1 1 1 1
8 7 5 4 4 4 4 4 4 4 5 5 6 6 7 7 6 6 6 6 7 7 6 5 4 4 5 5 6 7 8 8 8 8 8 8 8 8 8 7 6 5 3 2 2 2 2 2 2
7 7 5 4 4 5 5 5 4 4 5 6 6 6 6 6 6 6 6 6 7 7 6 5 5 5 5 6 7 8 9 9 9 9 9 9 9 8 8 7 6 5 3 3 2 2 2 2 2
7 6 5 4 4 5 5 5 5 5 5 6 6 6 6 6 6 6 6 6 6 7 6 6 5 6 7 7 9 10 10 11 10 10 10 10 9 9 8 7 7 6 5 4 4 3 3 3 3
7 6 5 5 5 5 6 6 5 5 6 6 6 6 6 6 5 5 5 6 6 7 7 7 7 7 8 9 10 11 12 12 13 13 13 12 10 9 8 8 7 7 7 6 6 5 5 4 4
7 6 6 6 6 6 6 6 6 6 6 6 6 6 6 5 5 5 5 6 6 7 7 7 8 8 9 11 12 13 14 14 15 15 15 13 11 10 9 9 9 9 9 9 8 7 6 5 4
7 6 6 7 7 7 7 7 6 6 6 5 6 6 6 5 4 5 5 6 6 7 8 8 9 9 10 12 14 15 16 16 17 17 16 14 12 10 10 10 10 11 11 11 10 8 7 6 5
7 7 7 7 8 8 7 7 6 6 6 6 6 6 6 5 4 4 5 6 6 7 7 8 9 10 12 14 15 16 17 17 17 17 16 15 13 12 12 12 13 14 14 13 11 10 8 7 6
7 7 8 8 8 8 8 7 7 6 6 6 7 6 6 5 4 4 5 5 6 7 7 8 9 11 13 15 16 16 17 17 16 16 16 15 14 14 14 15 15 15 15 14 12 11 10 9 8
7 7 8 8 8 8 8 7 7 7 7 7 7 7 6 5 4 4 5 5 6 6 7 8 9 11 13 15 16 16 17 16 16 16 15 15 15 15 15 16 16 16 16 15 13 12 12 11 11
7 7 8 8 8 8 7 7 7 7 7 7 7 7 6 5 5 4 5 5 6 6 7 8 9 11 13 14 15 16 16 16 16 15 15 15 15 15 15 15 16 16 16 16 15 14 14 14 14
7 7 7 7 7 7 6 6 6 6 6 6 7 7 6 5 5 4 5 5 5 6 6 7 9 11 13 14 14 15 16 16 16 15 15 15 15 15 15 15 16 16 17 16 16 15 15 15 15
6 6 5 6 6 6 6 5 5 6 6 6 6 6 6 5 5 5 5 5 5 6 6 7 8 10 12 13 14 15 16 16 16 15 15 15 15 16 16 16 16 16 16 16 16 15 15 15 15
5 4 4 5 5 5 5 4 5 6 6 6 6 6 6 6 6 5 5 5 5 5 6 7 8 9 11 13 14 14 15 16 16 16 15 15 15 16 16 15 16 16 16 16 15 15 14 14 14
4 4 4 5 5 5 4 4 5 6 6 6 6 6 7 7 6 6 6 5 5 5 6 6 7 8 10 12 13 14 15 15 16 15 15 15 15 15 15 15 15 16 16 16 15 15 14 14 14
5 4 4 5 5 5 4 4 5 6 6 6 6 6 7 7 7 7 6 6 5 5 6 6 7 8 9 10 12 13 13 14 15 15 15 15 15 15 14 14 15 15 15 15 15 14 13 13 13
5 5 4 5 5 5 4 4 4 5 5 5 6 6 7 7 7 7 7 6 6 6 6 6 7 7 8 9 11 12 13 14 15 15 15 14 14 14 14 14 14 15 15 15 14 14 13 12 13
5 5 5 5 5 5 4 3 3 4 4 5 5 6 6 7 7 7 7 7 6 6 6 6 6 7 7 8 9 11 13 13 14 14 14 14 14 14 13 13 13 14 14 14 14 14 13 12 12
4 5 5 5 4 4 4 3 3 3 4 4 5 5 6 6 7 7 7 7 7 6 6 6 6 6 7 8 8 10 12 13 13 14 14 14 14 13 13 13 13 13 13 13 13 13 12 12 11
5 5 5 5 4 4 3 3 3 3 3 4 4 5 6 7 7 7 8 8 7 7 6 6 6 6 7 7 8 10 12 13 13 13 14 14 14 13 13 13 13 12 13 13 13 13 12 12 11
5 5 5 4 3 3 3 3 3 3 4 4 5 6 6 7 7 8 8 8 8 7 7 6 6 6 7 7 8 9 11 12 13 13 13 13 13 13 13 13 12 12 12 12 12 12 12 11 11
5 4 3 2 2 2 2 3 3 4 5 6 6 6 7 7 7 8 8 8 8 8 7 7 7 7 7 7 8 9 10 12 12 12 12 12 13 13 13 13 13 12 12 12 12 12 11 11 11
4 4 2 1 1 2 3 3 3 4 6 6 7 7 7 7 8 8 8 8 8 8 7 7 7 7 7 7 8 9 10 11 12 12 12 12 12 13 13 13 13 13 12 12 12 12 11 11 11
4 4 3 2 2 2 2 3 3 4 5 6 6 7 7 8 8 8 9 9 9 9 8 8 8 8 8 8 8 9 10 11 12 12 12 12 12 12 12 13 13 13 13 13 12 12 11 11 11
4 4 3 3 2 1 2 3 3 4 4 5 6 6 7 8 8 9 9 9 10 10 10 9 9 9 9 9 9 9 10 11 11 12 12 12 11 11 11 12 12 13 13 13 13 12 12 12 12
4 4 4 3 2 1 1 2 3 4 5 5 6 7 7 8 8 9 9 9 10 10 10 10 10 10 10 10 9 10 10 10 11 11 11 11 11 11 10 11 11 12 12 13 13 12 12 12 12
5 4 4 3 2 2 2 3 4 5 5 6 6 7 8 8 8 9 9 9 10 10 10 10 10 10 10 10 10 10 10 10 10 10 10 10 10 10 10 10 10 11 12 12 12 12 12 12 11